This is the latest recevied weather packets stored in our database for station/object NY5V. If no packets are shown the sender has not sent any weather packets the latest 10 day(s).
| Time | Temp. | Humidity | Pressure | Rain* | Wind** | Luminosity | Snow |
|---|---|---|---|---|---|---|---|
| 1777488817 | 18.33° C | 96% | 1013 hPa | 0 mm | - | 40 W/m² | - |
| 1777488212 | 18.33° C | 96% | 1013.5 hPa | 0 mm | - | 30 W/m² | - |
| 1777487607 | 18.89° C | 95% | 1013.4 hPa | 0 mm | - | 48 W/m² | - |
| 1777487008 | 18.89° C | 94% | 1014.1 hPa | 0 mm | - | 50 W/m² | - |
| 1777486408 | 18.89° C | 94% | 1014 hPa | 0 mm | - | 58 W/m² | - |
| 1777485807 | 18.89° C | 94% | 1014.3 hPa | 0 mm | - | 48 W/m² | - |
| 1777485205 | 19.44° C | 93% | 1014.3 hPa | 0 mm | - | 68 W/m² | - |
| 1777484604 | 19.44° C | 93% | 1014.5 hPa | 0 mm | - | 59 W/m² | - |
| 1777484002 | 19.44° C | 93% | 1014.7 hPa | 0 mm | - | 30 W/m² | - |
| 1777483401 | 20° C | 93% | 1014.5 hPa | 0 mm | - | 39 W/m² | - |
| 1777482800 | 20° C | 93% | 1014.3 hPa | 0 mm | - | 47 W/m² | - |
| 1777482198 | 20° C | 93% | 1014.2 hPa | 0 mm | - | 59 W/m² | - |
| 1777481593 | 20° C | 93% | 1013.7 hPa | 0 mm | - | 89 W/m² | - |
| 1777480992 | 20° C | 93% | 1013.8 hPa | 0 mm | - | 89 W/m² | - |
| 1777480391 | 20° C | 92% | 1013.6 hPa | 0 mm | - | 94 W/m² | - |
| 1777479789 | 18.89° C | 95% | 1013.8 hPa | 0 mm | - | 128 W/m² | - |
| 1777479183 | 18.89° C | 95% | 1014.2 hPa | 0 mm | - | 89 W/m² | - |
| 1777478582 | 18.89° C | 95% | 1014.2 hPa | 0 mm | - | 94 W/m² | - |
| 1777477982 | 18.89° C | 96% | 1014.6 hPa | 0 mm | - | 70 W/m² | - |
| 1777477380 | 18.33° C | 95% | 1015.1 hPa | 0 mm | - | 64 W/m² | - |
| 1777476780 | 18.89° C | 95% | 1014.9 hPa | 0 mm | - | 59 W/m² | - |
| 1777476179 | 18.89° C | 96% | 1014.6 hPa | 0 mm | - | 73 W/m² | - |
| 1777475577 | 18.89° C | 96% | 1014.7 hPa | 0 mm | - | 67 W/m² | - |
| 1777474974 | 18.89° C | 96% | 1014.4 hPa | 0 mm | - | 48 W/m² | - |
| 1777474373 | 18.89° C | 97% | 1014.2 hPa | 0 mm | - | 46 W/m² | - |
* Rain latest hour (hover to see other rain measurements)
** Current wind speed in m/s (hover to see current wind gust speed)